Time,TemperatureF,DewpointF,PressureIn,WindDirection,WindDirectionDegrees,WindSpeedMPH,WindSpeedGustMPH,Humidity,HourlyPrecipIn,Conditions,Clouds,dailyrainin,SolarRadiationWatts/m^2,SoftwareType,DateUTC
2013-04-14 00:03:00,63.0,40.0,-100.00,SE,138,1.0,2.0,43,0.00,,,0.00,0.000000,,2013-04-14 04:03:00,
2013-04-14 00:12:00,61.0,40.0,-100.00,SE,138,1.0,3.0,45,0.00,,,0.00,0.000000,,2013-04-14 04:12:00,
2013-04-14 00:33:00,61.0,40.0,-100.00,SE,138,1.0,3.0,45,0.00,,,0.00,0.000000,,2013-04-14 04:33:00,
2013-04-14 00:43:00,61.0,40.0,-100.00,SE,138,1.0,3.0,45,0.00,,,0.00,0.000000,,2013-04-14 04:43:00,
2013-04-14 00:53:00,61.0,40.0,-100.00,SE,138,1.0,3.0,45,0.00,,,0.00,0.000000,,2013-04-14 04:53:00,
2013-04-14 01:03:00,61.0,40.0,-100.00,SE,138,1.0,3.0,45,0.00,,,0.00,0.000000,,2013-04-14 05:03:00,
2013-04-14 01:12:00,62.0,40.0,-100.00,SE,133,2.0,5.0,44,0.00,,,0.00,0.000000,,2013-04-14 05:12:00,
2013-04-14 01:32:00,62.0,40.0,-100.00,SE,133,2.0,5.0,44,0.00,,,0.00,0.000000,,2013-04-14 05:32:00,
2013-04-14 01:43:00,62.0,40.0,-100.00,SE,133,2.0,5.0,44,0.00,,,0.00,0.000000,,2013-04-14 05:43:00,
2013-04-14 01:53:00,62.0,40.0,-100.00,SE,133,2.0,5.0,44,0.00,,,0.00,0.000000,,2013-04-14 05:53:00,
2013-04-14 02:02:00,62.0,40.0,-100.00,SE,133,2.0,5.0,44,0.00,,,0.00,0.000000,,2013-04-14 06:02:00,
2013-04-14 02:12:00,55.0,43.0,-100.00,ESE,104,1.0,4.0,64,0.00,,,0.00,0.000000,,2013-04-14 06:12:00,
2013-04-14 02:32:00,55.0,43.0,-100.00,ESE,104,1.0,4.0,64,0.00,,,0.00,0.000000,,2013-04-14 06:32:00,
2013-04-14 02:42:00,55.0,43.0,-100.00,ESE,104,1.0,4.0,64,0.00,,,0.00,0.000000,,2013-04-14 06:42:00,
2013-04-14 02:53:00,55.0,43.0,-100.00,ESE,104,1.0,4.0,64,0.00,,,0.00,0.000000,,2013-04-14 06:53:00,
2013-04-14 03:03:00,55.0,43.0,-100.00,ESE,104,1.0,4.0,64,0.00,,,0.00,0.000000,,2013-04-14 07:03:00,
2013-04-14 03:12:00,53.0,45.0,-100.00,NE,49,0.0,3.0,73,0.00,,,0.00,0.000000,,2013-04-14 07:12:00,
2013-04-14 03:33:00,53.0,45.0,-100.00,NE,49,0.0,3.0,73,0.00,,,0.00,0.000000,,2013-04-14 07:33:00,
2013-04-14 03:42:00,53.0,45.0,-100.00,NE,49,0.0,3.0,73,0.00,,,0.00,0.000000,,2013-04-14 07:42:00,
2013-04-14 03:52:00,53.0,45.0,-100.00,NE,49,0.0,3.0,73,0.00,,,0.00,0.000000,,2013-04-14 07:52:00,
2013-04-14 04:03:00,53.0,45.0,-100.00,NE,49,0.0,3.0,73,0.00,,,0.00,0.000000,,2013-04-14 08:03:00,
2013-04-14 04:12:00,56.0,40.0,-100.00,ESE,113,0.0,3.0,55,0.00,,,0.00,0.000000,,2013-04-14 08:12:00,
2013-04-14 04:43:00,56.0,40.0,-100.00,ESE,113,0.0,3.0,55,0.00,,,0.00,0.000000,,2013-04-14 08:43:00,
2013-04-14 04:52:00,56.0,40.0,-100.00,ESE,113,0.0,3.0,55,0.00,,,0.00,0.000000,,2013-04-14 08:52:00,
2013-04-14 05:03:00,56.0,40.0,-100.00,ESE,113,0.0,3.0,55,0.00,,,0.00,0.000000,,2013-04-14 09:03:00,
2013-04-14 05:12:00,52.0,44.0,-100.00,ESE,117,0.0,2.0,73,0.00,,,0.00,0.000000,,2013-04-14 09:12:00,
2013-04-14 05:43:00,52.0,44.0,-100.00,ESE,117,0.0,2.0,73,0.00,,,0.00,0.000000,,2013-04-14 09:43:00,
2013-04-14 05:54:00,52.0,44.0,-100.00,ESE,117,0.0,2.0,73,0.00,,,0.00,0.000000,,2013-04-14 09:54:00,
2013-04-14 06:03:00,52.0,44.0,-100.00,ESE,117,0.0,2.0,73,0.00,,,0.00,0.000000,,2013-04-14 10:03:00,
2013-04-14 06:12:00,47.0,43.0,-100.00,ENE,63,0.0,2.0,86,0.00,,,0.00,0.000000,,2013-04-14 10:12:00,
2013-04-14 06:33:00,47.0,43.0,-100.00,ENE,63,0.0,2.0,86,0.00,,,0.00,0.000000,,2013-04-14 10:33:00,
2013-04-14 06:43:00,47.0,43.0,-100.00,ENE,63,0.0,2.0,86,0.00,,,0.00,0.000000,,2013-04-14 10:43:00,
2013-04-14 06:53:00,47.0,43.0,-100.00,ENE,63,0.0,2.0,86,0.00,,,0.00,0.000000,,2013-04-14 10:53:00,
2013-04-14 07:02:00,47.0,43.0,-100.00,ENE,63,0.0,2.0,86,0.00,,,0.00,0.000000,,2013-04-14 11:02:00,
2013-04-14 07:12:00,51.0,40.0,-100.00,North,10,0.0,3.0,67,0.00,,,0.00,1.000000,,2013-04-14 11:12:00,
2013-04-14 07:33:00,51.0,40.0,-100.00,North,10,0.0,3.0,67,0.00,,,0.00,1.000000,,2013-04-14 11:33:00,
2013-04-14 07:42:00,51.0,40.0,-100.00,North,10,0.0,3.0,67,0.00,,,0.00,1.000000,,2013-04-14 11:42:00,
2013-04-14 07:53:00,51.0,40.0,-100.00,North,10,0.0,3.0,67,0.00,,,0.00,1.000000,,2013-04-14 11:53:00,
2013-04-14 08:02:00,51.0,40.0,-100.00,North,10,0.0,3.0,67,0.00,,,0.00,1.000000,,2013-04-14 12:02:00,
2013-04-14 08:12:00,55.0,43.0,-100.00,ESE,117,3.0,9.0,65,0.00,,,0.00,43.000000,,2013-04-14 12:12:00,
2013-04-14 08:42:00,55.0,43.0,-100.00,ESE,117,3.0,9.0,65,0.00,,,0.00,43.000000,,2013-04-14 12:42:00,
2013-04-14 08:52:00,55.0,43.0,-100.00,ESE,117,3.0,9.0,65,0.00,,,0.00,43.000000,,2013-04-14 12:52:00,
2013-04-14 09:02:00,55.0,43.0,-100.00,ESE,117,3.0,9.0,65,0.00,,,0.00,43.000000,,2013-04-14 13:02:00,
2013-04-14 09:12:00,61.0,47.0,-100.00,SE,134,4.0,9.0,60,0.00,,,0.00,165.000000,,2013-04-14 13:12:00,
2013-04-14 09:33:00,61.0,47.0,-100.00,SE,134,4.0,9.0,60,0.00,,,0.00,165.000000,,2013-04-14 13:33:00,
2013-04-14 09:43:00,61.0,47.0,-100.00,SE,134,4.0,9.0,60,0.00,,,0.00,165.000000,,2013-04-14 13:43:00,
2013-04-14 09:52:00,61.0,47.0,-100.00,SE,134,4.0,9.0,60,0.00,,,0.00,165.000000,,2013-04-14 13:52:00,
2013-04-14 10:02:00,61.0,47.0,-100.00,SE,134,4.0,9.0,60,0.00,,,0.00,165.000000,,2013-04-14 14:02:00,
2013-04-14 10:12:00,66.0,49.0,-100.00,SSE,150,3.0,8.0,55,0.00,,,0.00,179.000000,,2013-04-14 14:12:00,
2013-04-14 10:42:00,66.0,49.0,-100.00,SSE,150,3.0,8.0,55,0.00,,,0.00,179.000000,,2013-04-14 14:42:00,
2013-04-14 10:53:00,66.0,49.0,-100.00,SSE,150,3.0,8.0,55,0.00,,,0.00,179.000000,,2013-04-14 14:53:00,
2013-04-14 11:03:00,66.0,49.0,-100.00,SSE,150,3.0,8.0,55,0.00,,,0.00,179.000000,,2013-04-14 15:03:00,
2013-04-14 11:12:00,67.0,50.0,-100.00,SSE,151,2.0,9.0,55,0.00,,,0.00,306.000000,,2013-04-14 15:12:00,
2013-04-14 11:34:00,67.0,50.0,-100.00,SSE,151,2.0,9.0,55,0.00,,,0.00,306.000000,,2013-04-14 15:34:00,
2013-04-14 11:44:00,67.0,50.0,-100.00,SSE,151,2.0,9.0,55,0.00,,,0.00,306.000000,,2013-04-14 15:44:00,
2013-04-14 11:53:00,67.0,50.0,-100.00,SSE,151,2.0,9.0,55,0.00,,,0.00,306.000000,,2013-04-14 15:53:00,
2013-04-14 12:05:00,67.0,50.0,-100.00,SSE,151,2.0,9.0,55,0.00,,,0.00,306.000000,,2013-04-14 16:05:00,
2013-04-14 12:12:00,68.0,50.0,-100.00,SE,144,3.0,8.0,52,0.00,,,0.00,230.000000,,2013-04-14 16:12:00,
2013-04-14 12:33:00,68.0,50.0,-100.00,SE,144,3.0,8.0,52,0.00,,,0.00,230.000000,,2013-04-14 16:33:00,
2013-04-14 12:43:00,68.0,50.0,-100.00,SE,144,3.0,8.0,52,0.00,,,0.00,230.000000,,2013-04-14 16:43:00,
2013-04-14 12:53:00,68.0,50.0,-100.00,SE,144,3.0,8.0,52,0.00,,,0.00,230.000000,,2013-04-14 16:53:00,
2013-04-14 13:02:00,68.0,50.0,-100.00,SE,144,3.0,8.0,52,0.00,,,0.00,230.000000,,2013-04-14 17:02:00,
2013-04-14 13:12:00,69.0,49.0,-100.00,SE,141,4.0,9.0,49,0.00,,,0.00,272.000000,,2013-04-14 17:12:00,
2013-04-14 13:43:00,69.0,49.0,-100.00,SE,141,4.0,9.0,49,0.00,,,0.00,272.000000,,2013-04-14 17:43:00,
2013-04-14 13:53:00,69.0,49.0,-100.00,SE,141,4.0,9.0,49,0.00,,,0.00,272.000000,,2013-04-14 17:53:00,
2013-04-14 14:03:00,69.0,49.0,-100.00,SE,141,4.0,9.0,49,0.00,,,0.00,272.000000,,2013-04-14 18:03:00,
2013-04-14 14:12:00,70.0,50.0,-100.00,SE,134,3.0,8.0,49,0.00,,,0.00,216.000000,,2013-04-14 18:12:00,
2013-04-14 14:33:00,70.0,50.0,-100.00,SE,134,3.0,8.0,49,0.00,,,0.00,216.000000,,2013-04-14 18:33:00,
2013-04-14 14:43:00,70.0,50.0,-100.00,SE,134,3.0,8.0,49,0.00,,,0.00,216.000000,,2013-04-14 18:43:00,
2013-04-14 14:54:00,70.0,50.0,-100.00,SE,134,3.0,8.0,49,0.00,,,0.00,216.000000,,2013-04-14 18:54:00,
2013-04-14 15:04:00,70.0,50.0,-100.00,SE,134,3.0,8.0,49,0.00,,,0.00,216.000000,,2013-04-14 19:04:00,
2013-04-14 15:12:00,69.0,51.0,-100.00,South,170,0.0,9.0,53,0.00,,,0.00,117.000000,,2013-04-14 19:12:00,
2013-04-14 15:33:00,69.0,51.0,-100.00,South,170,0.0,9.0,53,0.00,,,0.00,117.000000,,2013-04-14 19:33:00,
2013-04-14 15:43:00,69.0,51.0,-100.00,South,170,0.0,9.0,53,0.00,,,0.00,117.000000,,2013-04-14 19:43:00,
2013-04-14 15:53:00,69.0,51.0,-100.00,South,170,0.0,9.0,53,0.00,,,0.00,117.000000,,2013-04-14 19:53:00,
2013-04-14 16:03:00,69.0,51.0,-100.00,South,170,0.0,9.0,53,0.00,,,0.00,117.000000,,2013-04-14 20:03:00,
2013-04-14 16:12:00,66.0,53.0,-100.00,SSW,198,1.0,4.0,64,0.00,,,0.00,64.000000,,2013-04-14 20:12:00,
2013-04-14 16:43:00,66.0,53.0,-100.00,SSW,198,1.0,4.0,64,0.00,,,0.00,64.000000,,2013-04-14 20:43:00,
2013-04-14 16:53:00,66.0,53.0,-100.00,SSW,198,1.0,4.0,64,0.00,,,0.00,64.000000,,2013-04-14 20:53:00,
2013-04-14 17:02:00,66.0,53.0,-100.00,SSW,198,1.0,4.0,64,0.00,,,0.00,64.000000,,2013-04-14 21:02:00,
2013-04-14 17:12:00,62.0,60.0,-100.00,North,357,0.0,2.0,94,0.02,,,0.02,57.000000,,2013-04-14 21:12:00,
2013-04-14 17:43:00,62.0,60.0,-100.00,North,357,0.0,2.0,94,0.02,,,0.02,57.000000,,2013-04-14 21:43:00,
2013-04-14 17:54:00,62.0,60.0,-100.00,North,357,0.0,2.0,94,0.02,,,0.02,57.000000,,2013-04-14 21:54:00,
2013-04-14 18:03:00,62.0,60.0,-100.00,North,357,0.0,2.0,94,0.02,,,0.02,57.000000,,2013-04-14 22:03:00,
2013-04-14 18:12:00,63.0,60.0,-100.00,NE,47,0.0,3.0,89,0.01,,,0.03,85.000000,,2013-04-14 22:12:00,
2013-04-14 18:44:00,63.0,60.0,-100.00,NE,47,0.0,3.0,89,0.01,,,0.03,85.000000,,2013-04-14 22:44:00,
2013-04-14 18:53:00,63.0,60.0,-100.00,NE,47,0.0,3.0,89,0.01,,,0.03,85.000000,,2013-04-14 22:53:00,
2013-04-14 19:02:00,63.0,60.0,-100.00,NE,47,0.0,3.0,89,0.01,,,0.03,85.000000,,2013-04-14 23:02:00,
2013-04-14 19:12:00,60.0,57.0,-100.00,SSE,150,4.0,12.0,90,0.01,,,0.04,20.000000,,2013-04-14 23:12:00,
2013-04-14 19:33:00,60.0,57.0,-100.00,SSE,150,4.0,12.0,90,0.01,,,0.04,20.000000,,2013-04-14 23:33:00,
2013-04-14 19:43:00,60.0,57.0,-100.00,SSE,150,4.0,12.0,90,0.01,,,0.04,20.000000,,2013-04-14 23:43:00,
2013-04-14 19:53:00,60.0,57.0,-100.00,SSE,150,4.0,12.0,90,0.01,,,0.04,20.000000,,2013-04-14 23:53:00,
2013-04-14 20:02:00,60.0,57.0,-100.00,SSE,150,4.0,12.0,90,0.01,,,0.04,20.000000,,2013-04-15 00:02:00,
2013-04-14 20:12:00,58.0,55.0,-100.00,SE,125,5.0,15.0,90,0.03,,,-99.99,3.000000,,2013-04-15 00:12:00,
2013-04-14 20:33:00,58.0,55.0,-100.00,SE,125,5.0,15.0,90,0.03,,,-99.99,3.000000,,2013-04-15 00:33:00,
2013-04-14 20:43:00,58.0,55.0,-100.00,SE,125,5.0,15.0,90,0.03,,,-99.99,3.000000,,2013-04-15 00:43:00,
2013-04-14 20:53:00,58.0,55.0,-100.00,SE,125,5.0,15.0,90,0.03,,,-99.99,3.000000,,2013-04-15 00:53:00,
2013-04-14 21:03:00,58.0,55.0,-100.00,SE,125,5.0,15.0,90,0.03,,,-99.99,3.000000,,2013-04-15 01:03:00,
2013-04-14 21:12:00,58.0,55.0,-100.00,NNE,31,1.0,11.0,89,0.00,,,0.07,0.000000,,2013-04-15 01:12:00,
2013-04-14 21:43:00,58.0,55.0,-100.00,NNE,31,1.0,11.0,89,0.00,,,0.07,0.000000,,2013-04-15 01:43:00,
2013-04-14 21:52:00,58.0,55.0,-100.00,NNE,31,1.0,11.0,89,0.00,,,0.07,0.000000,,2013-04-15 01:52:00,
2013-04-14 22:03:00,58.0,55.0,-100.00,NNE,31,1.0,11.0,89,0.00,,,0.07,0.000000,,2013-04-15 02:03:00,
2013-04-14 22:12:00,59.0,56.0,-100.00,NW,322,0.0,23.0,90,0.00,,,0.07,0.000000,,2013-04-15 02:12:00,
2013-04-14 22:32:00,59.0,56.0,-100.00,NW,322,0.0,23.0,90,0.00,,,0.07,0.000000,,2013-04-15 02:32:00,
2013-04-14 22:42:00,59.0,56.0,-100.00,NW,322,0.0,23.0,90,0.00,,,0.07,0.000000,,2013-04-15 02:42:00,
2013-04-14 22:53:00,59.0,56.0,-100.00,NW,322,0.0,23.0,90,0.00,,,0.07,0.000000,,2013-04-15 02:53:00,
2013-04-14 23:03:00,59.0,56.0,-100.00,NW,322,0.0,23.0,90,0.00,,,0.07,0.000000,,2013-04-15 03:03:00,
2013-04-14 23:12:00,61.0,58.0,-100.00,NE,56,0.0,8.0,90,0.00,,,0.07,0.000000,,2013-04-15 03:12:00,
2013-04-14 23:43:00,61.0,58.0,-100.00,NE,56,0.0,8.0,90,0.00,,,0.07,0.000000,,2013-04-15 03:43:00,
2013-04-14 23:55:00,61.0,58.0,-100.00,NE,56,0.0,8.0,90,0.00,,,0.07,0.000000,,2013-04-15 03:55:00,